Terminal Aerodrome Forecast
Issued by NWS State College, PA

Home | Current Version | Previous Version | Text Only | Print | Product List | Glossary On
Versions: 1 2 3 4 5 6 7 8 9 10 11 12 13 14 15 16 17 18 19 20 21 22 23 24 25 26 27 28 29 30 31 32 33 34 35 36 37 38 39 40 41 42 43
000
FTUS41 KCTP 200333 AAA
TAFMDT
TAF AMD
KMDT 200333Z 2004/2024 13007KT P6SM BKN050
     FM200600 13006KT 5SM BR FEW006 BKN015
      TEMPO 2009/2012 2SM BR
     FM201500 17007KT P6SM SCT050=

USA.gov is the U.S. government's official web portal to all federal, state and local government web resources and services.